User: anonymous   Login
Location: Unspecified
(0.0000°N, 0.0000°E)
Time: 22:22:40
(UTC+00:00)
Language:

QBITO - Orbit

View from above orbital plane
View from above orbital plane
View from above satellite
View from above satellite

Ground track
Ground track

The orbit data is extracted from the following two-line orbital elements,

1 42728U 98067MH  18344.54373987  .00109632  00000-0  39178-3 0  9991
2 42728  51.6293 165.6069 0004172 209.0221 151.0552 15.88007238 88191
Epoch (UTC): 10 December 2018 13:02:59
Eccentricity: 0.0004172
inclination: 51.6293°
perigee height: 305 km
apogee height: 310 km
right ascension of ascending node: 165.6069°
argument of perigee: 209.0221°
revolutions per day: 15.88007238
mean anomaly at epoch: 151.0552°
orbit number at epoch: 8819

The dashed part of the orbit path shows where the satellite is in the earth's shadow,  

DLR